• In Romania
  • List of Countries
  • For 7 days
  • Water Temperature
  • Satellite Maps
  • Weather Map
  • Weather Widgets
  • user-avatar
    Login

    Hourly Weather Ganja

    Today, 25 June, Sunday

    Time Temperature Precipitation Wind Pressure Humidity
    00:00 +19°C° 0 mm 0 mps 723 mmHg 69%
    01:00 +21°C° 0.2 mm 1 mps 723 mmHg 70%
    02:00 +20°C° 0.2 mm 1 mps 723 mmHg 71%
    03:00 +20°C° 0.2 mm 1 mps 723 mmHg 72%
    04:00 +21°C° 0.1 mm 1 mps 723 mmHg 70%
    05:00 +22°C° 0.1 mm 1 mps 723 mmHg 68%
    06:00 +23°C° 0.1 mm 2 mps 723 mmHg 66%
    07:00 +25°C° 0.1 mm 2 mps 723 mmHg 60%
    08:00 +26°C° 0.1 mm 3 mps 724 mmHg 54%
    09:00 +28°C° 0.1 mm 3 mps 724 mmHg 47%
    10:00 +29°C° 0.1 mm 3 mps 723 mmHg 44%
    11:00 +30°C° 0.1 mm 4 mps 723 mmHg 40%
    12:00 +32°C° 0.1 mm 4 mps 723 mmHg 36%
    13:00 +31°C° 0.1 mm 3 mps 723 mmHg 35%
    14:00 +33°C° 0.1 mm 3 mps 723 mmHg 34%
    15:00 +33°C° 0.1 mm 3 mps 723 mmHg 33%
    16:00 +33°C° 0 mm 3 mps 723 mmHg 36%
    17:00 +31°C° 0 mm 2 mps 723 mmHg 38%
    18:00 +30°C° 0 mm 2 mps 723 mmHg 41%
    19:00 +28°C° 0 mm 2 mps 724 mmHg 45%
    20:00 +26°C° 0 mm 2 mps 724 mmHg 49%
    21:00 +23°C° 0 mm 2 mps 725 mmHg 53%
    22:00 +23°C° 0 mm 2 mps 725 mmHg 58%
    23:00 +22°C° 0 mm 1 mps 725 mmHg 62%

    Tomorrow, 26 June, Monday

    Time Temperature Precipitation Wind Pressure Humidity
    00:00 +21°C° 0 mm 1 mps 726 mmHg 67%
    01:00 +21°C° 0 mm 1 mps 726 mmHg 70%
    02:00 +20°C° 0 mm 1 mps 726 mmHg 73%
    03:00 +18°C° 0 mm 0 mps 726 mmHg 76%
    04:00 +19°C° 0 mm 0 mps 726 mmHg 73%
    05:00 +22°C° 0 mm 1 mps 727 mmHg 70%
    06:00 +23°C° 0 mm 1 mps 727 mmHg 68%
    07:00 +25°C° 0 mm 1 mps 727 mmHg 63%
    08:00 +26°C° 0 mm 2 mps 728 mmHg 58%
    09:00 +27°C° 0 mm 2 mps 728 mmHg 53%
    10:00 +28°C° 0 mm 3 mps 727 mmHg 50%
    11:00 +29°C° 0 mm 4 mps 727 mmHg 47%
    12:00 +32°C° 0 mm 4 mps 727 mmHg 45%
    13:00 +32°C° 0 mm 4 mps 727 mmHg 44%
    14:00 +32°C° 0 mm 4 mps 726 mmHg 43%
    15:00 +33°C° 0 mm 4 mps 726 mmHg 42%
    16:00 +32°C° 0 mm 4 mps 726 mmHg 44%
    17:00 +32°C° 0 mm 4 mps 726 mmHg 46%
    18:00 +30°C° 0 mm 4 mps 726 mmHg 48%
    19:00 +28°C° 0 mm 4 mps 727 mmHg 53%
    20:00 +26°C° 0 mm 4 mps 727 mmHg 58%
    21:00 +23°C° 0 mm 4 mps 727 mmHg 62%
    22:00 +23°C° 0 mm 4 mps 727 mmHg 64%
    23:00 +22°C° 0 mm 3 mps 727 mmHg 67%

    Day after tomorrow, 27 June, Tuesday

    Time Temperature Precipitation Wind Pressure Humidity
    00:00 +21°C° 0 mm 3 mps 727 mmHg 69%
    01:00 +21°C° 0 mm 2 mps 727 mmHg 72%
    02:00 +21°C° 0 mm 1 mps 727 mmHg 74%
    03:00 +20°C° 0 mm 1 mps 727 mmHg 77%
    04:00 +21°C° 0 mm 1 mps 727 mmHg 74%
    05:00 +20°C° 0 mm 0 mps 727 mmHg 71%
    06:00 +21°C° 0 mm 0 mps 727 mmHg 69%
    07:00 +25°C° 0 mm 1 mps 727 mmHg 63%
    08:00 +26°C° 0 mm 1 mps 726 mmHg 58%
    09:00 +28°C° 0 mm 1 mps 726 mmHg 52%
    10:00 +29°C° 0 mm 1 mps 726 mmHg 49%
    11:00 +30°C° 0 mm 1 mps 725 mmHg 46%
    12:00 +32°C° 0 mm 2 mps 725 mmHg 43%
    13:00 +32°C° 0 mm 2 mps 724 mmHg 42%
    14:00 +34°C° 0 mm 2 mps 724 mmHg 41%
    15:00 +35°C° 0 mm 2 mps 724 mmHg 40%
    16:00 +34°C° 0 mm 2 mps 724 mmHg 42%
    17:00 +34°C° 0 mm 2 mps 724 mmHg 44%
    18:00 +32°C° 0 mm 2 mps 724 mmHg 46%
    19:00 +30°C° 0 mm 2 mps 724 mmHg 51%
    20:00 +28°C° 0 mm 2 mps 724 mmHg 55%
    21:00 +26°C° 0 mm 2 mps 725 mmHg 60%
    22:00 +25°C° 0 mm 2 mps 724 mmHg 61%
    23:00 +24°C° 0 mm 2 mps 724 mmHg 62%

    28 June, Wednesday

    Time Temperature Precipitation Wind Pressure Humidity
    00:00 +23°C° 0 mm 2 mps 724 mmHg 64%
    01:00 +23°C° 0 mm 1 mps 724 mmHg 66%
    02:00 +22°C° 0 mm 1 mps 724 mmHg 67%
    03:00 +19°C° 0 mm 0 mps 724 mmHg 69%
    04:00 +21°C° 0 mm 0 mps 724 mmHg 67%
    05:00 +22°C° 0 mm 0 mps 724 mmHg 64%
    06:00 +26°C° 0 mm 1 mps 724 mmHg 62%
    07:00 +27°C° 0 mm 1 mps 724 mmHg 56%
    08:00 +29°C° 0 mm 1 mps 724 mmHg 50%
    09:00 +31°C° 0 mm 1 mps 724 mmHg 45%
    10:00 +32°C° 0 mm 2 mps 723 mmHg 42%
    11:00 +34°C° 0 mm 2 mps 723 mmHg 39%
    12:00 +35°C° 0 mm 2 mps 723 mmHg 36%
    13:00 +36°C° 0 mm 3 mps 722 mmHg 36%
    14:00 +36°C° 0 mm 3 mps 722 mmHg 36%
    15:00 +37°C° 0 mm 3 mps 722 mmHg 35%
    16:00 +36°C° 0.1 mm 3 mps 722 mmHg 37%
    17:00 +36°C° 0.1 mm 3 mps 722 mmHg 39%
    18:00 +35°C° 0.1 mm 2 mps 722 mmHg 41%
    19:00 +32°C° 0 mm 2 mps 722 mmHg 45%
    20:00 +29°C° 0 mm 2 mps 723 mmHg 50%
    21:00 +27°C° 0 mm 2 mps 723 mmHg 54%
    22:00 +26°C° 0 mm 2 mps 723 mmHg 55%
    23:00 +25°C° 0 mm 2 mps 723 mmHg 57%

    29 June, Thursday

    Time Temperature Precipitation Wind Pressure Humidity
    00:00 +25°C° 0 mm 1 mps 723 mmHg 58%
    01:00 +24°C° 0 mm 1 mps 723 mmHg 59%
    02:00 +23°C° 0 mm 1 mps 723 mmHg 61%
    03:00 +21°C° 0 mm 0 mps 723 mmHg 62%
    04:00 +22°C° 0 mm 0 mps 723 mmHg 60%
    05:00 +24°C° 0 mm 0 mps 724 mmHg 57%
    06:00 +25°C° 0 mm 0 mps 724 mmHg 54%
    07:00 +29°C° 0 mm 1 mps 724 mmHg 49%
    08:00 +30°C° 0 mm 1 mps 724 mmHg 43%
    09:00 +32°C° 0 mm 1 mps 724 mmHg 38%
    10:00 +34°C° 0 mm 2 mps 724 mmHg 36%
    11:00 +35°C° 0 mm 3 mps 723 mmHg 33%
    12:00 +36°C° 0 mm 3 mps 723 mmHg 31%
    13:00 +36°C° 0 mm 4 mps 723 mmHg 31%
    14:00 +37°C° 0 mm 4 mps 723 mmHg 30%
    15:00 +37°C° 0 mm 4 mps 722 mmHg 29%
    16:00 +36°C° 0 mm 4 mps 722 mmHg 31%
    17:00 +36°C° 0 mm 4 mps 722 mmHg 33%
    18:00 +35°C° 0 mm 3 mps 722 mmHg 35%
    19:00 +33°C° 0 mm 3 mps 723 mmHg 37%
    20:00 +30°C° 0 mm 3 mps 723 mmHg 39%
    21:00 +28°C° 0 mm 4 mps 723 mmHg 41%
    22:00 +27°C° 0 mm 3 mps 723 mmHg 41%
    23:00 +26°C° 0 mm 3 mps 723 mmHg 41%

    30 June, Friday

    Time Temperature Precipitation Wind Pressure Humidity
    00:00 +25°C° 0 mm 2 mps 723 mmHg 41%
    01:00 +25°C° 0 mm 2 mps 723 mmHg 43%
    02:00 +24°C° 0 mm 2 mps 723 mmHg 44%
    03:00 +23°C° 0 mm 1 mps 723 mmHg 45%
    04:00 +24°C° 0 mm 1 mps 723 mmHg 45%
    05:00 +25°C° 0 mm 1 mps 724 mmHg 45%
    06:00 +26°C° 0 mm 1 mps 724 mmHg 45%
    07:00 +28°C° 0 mm 1 mps 724 mmHg 39%
    08:00 +29°C° 0 mm 1 mps 724 mmHg 33%
    09:00 +31°C° 0 mm 1 mps 724 mmHg 27%
    10:00 +32°C° 0 mm 2 mps 724 mmHg 25%
    11:00 +34°C° 0 mm 3 mps 724 mmHg 24%
    12:00 +35°C° 0 mm 3 mps 723 mmHg 22%
    13:00 +36°C° 0 mm 4 mps 723 mmHg 22%
    14:00 +37°C° 0 mm 4 mps 723 mmHg 22%
    15:00 +37°C° 0 mm 5 mps 722 mmHg 22%
    16:00 +36°C° 0 mm 5 mps 723 mmHg 25%
    17:00 +35°C° 0 mm 5 mps 723 mmHg 27%
    18:00 +35°C° 0 mm 4 mps 723 mmHg 30%
    19:00 +32°C° 0 mm 4 mps 723 mmHg 32%
    20:00 +29°C° 0 mm 4 mps 723 mmHg 33%
    21:00 +27°C° 0 mm 4 mps 724 mmHg 35%
    22:00 +26°C° 0 mm 4 mps 724 mmHg 36%
    23:00 +25°C° 0 mm 3 mps 724 mmHg 37%
    Show more